User: anonymous   Login
Location: Hickory_Viewmont
(35.7830°N, 81.3170°W)
Time: 11:17:47
(UTC-04:00)
Language:

Okean-O - Orbit

View from above orbital plane
View from above orbital plane
View from above satellite
View from above satellite

Ground track
Ground track

The orbit data is extracted from the following two-line orbital elements,

1 25860U 99039A   17112.90956820 +.00000168 +00000-0 +31716-4 0  9999
2 25860 098.1828 097.0394 0001068 067.3293 292.8029 14.76465964955571
Epoch (UTC): 22 April 2017 21:49:46
Eccentricity: 0.0001068
inclination: 98.1828°
perigee height: 640 km
apogee height: 641 km
right ascension of ascending node: 97.0394°
argument of perigee: 67.3293°
revolutions per day: 14.76465964
mean anomaly at epoch: 292.8029°
orbit number at epoch: 95557

The dashed part of the orbit path shows where the satellite is in the earth's shadow,  

DLR